#timestamp,LO_Frequency,Hit,StdDev 
1625698815.5,286047003.6,N
1625698835.4,286047003.6,N
1625698855.2,286047004.1,N
1625698875.1,286047004.3,N
1625698876.0,286047004.3,N
1625698895.8,286047001.9,N
1625698915.6,286047001.5,N
1625698935.5,286046999.8,N
1625698955.3,286046999.8,N
1625698975.2,286047000.7,N
1625698995.9,286046999.3,N
1625699015.7,286046998.4,N
1625699035.6,286046998.1,N
1625699055.4,286047000.3,N
1625699075.2,286047000.1,N
1625699095.1,286047002.1,N
1625699096.0,286047002.1,N
1625699115.8,286047002.8,N
1625699135.7,286047000.1,N
1625699155.5,286046999.7,N
1625699175.3,286047000.0,N
1625699195.2,286047000.6,N
1625699215.9,286047000.7,N
1625699235.7,286047000.3,N
1625699255.6,286047000.0,N
1625699275.4,286047000.4,N
1625699295.2,286047002.7,N
1625699315.1,286047001.4,N
1625699316.0,286047001.4,N
1625699335.8,286047001.5,N
1625699355.7,286047002.0,N
1625699375.5,286047001.7,N
1625699395.3,286047004.4,N
1625699415.2,286047002.2,N
1625699435.0,286047002.4,N
1625699435.9,286047002.4,N
1625699455.7,286047002.7,N
1625699475.6,286047001.4,N
1625699495.4,286047004.4,Y
1625699515.3,286047000.9,P
1625699535.1,286047000.8,P
1625699555.8,286047000.3,N
1625699575.7,286046998.4,Y
1625699595.5,286046996.5,P
1625699615.4,286046996.7,N
1625699635.2,286046997.5,N
1625699655.0,286046995.2,N
1625699655.9,286046995.2,N
1625699675.8,286046997.2,N
1625699695.6,286046996.6,N
1625699715.4,286046995.5,N
1625699735.3,286046995.7,N
1625699755.1,286046994.9,Y
1625699775.9,286047000.5,P
1625699795.7,286047002.8,N
1625699815.5,286047000.5,N
1625699835.4,286046998.2,N
1625699855.2,286046998.1,N
1625699875.0,286046998.6,N
1625699875.9,286046998.6,N
1625699895.8,286046998.5,N
1625699915.6,286046998.2,N
1625699935.5,286047001.1,N
1625699955.3,286046998.4,N
1625699975.1,286046998.4,N
1625699995.9,286047001.0,N
1625700015.7,286046998.6,N
1625700035.5,286046998.5,N
1625700055.4,286046996.5,N
1625700075.2,286046998.1,N
1625700095.1,286046998.2,N
1625700096.0,286046998.2,N
1625700115.8,286046998.5,N
1625700135.6,286046998.6,N
1625700155.5,286046999.1,N
1625700175.3,286046999.3,N
1625700195.1,286046999.3,N
1625700215.9,286046998.9,N
1625700235.7,286046998.3,N
1625700255.6,286046998.9,N
1625700275.4,286046998.6,N
1625700295.2,286047000.0,N
1625700315.1,286046998.6,N
1625700316.0,286046998.6,N
1625700335.8,286046998.5,N
1625700355.6,286046998.2,N
1625700375.5,286046998.2,N
1625700395.3,286046998.9,N
1625700415.2,286046998.7,N
1625700435.9,286047000.8,N
1625700455.7,286047001.0,N
1625700475.6,286046998.1,N
1625700495.4,286047000.5,N
1625700515.3,286047000.0,N
1625700535.1,286047002.3,N
1625700536.0,286047002.3,N
1625700555.8,286047002.8,N
1625700575.7,286046999.7,N
1625700595.5,286047001.0,N
1625700615.3,286047001.1,N
1625700635.2,286047000.2,N
1625700655.0,286047002.8,N
1625700655.9,286047002.8,N
1625700675.8,286046999.7,N
1625700695.6,286046999.8,N
1625700715.4,286046999.8,N
1625700735.3,286047002.2,N
1625700755.1,286047002.2,N
1625700775.9,286047002.1,N
1625700795.7,286047001.6,N
1625700815.5,286047002.0,N
1625700835.4,286047000.4,N
1625700855.2,286047000.4,N
1625700875.0,286047000.9,N
1625700875.9,286047000.9,N
1625700895.8,286047000.0,N
1625700915.6,286047000.3,N
1625700935.5,286047000.1,N
1625700955.3,286046999.8,N
1625700975.1,286046999.7,N
1625700995.9,286047002.0,N
1625701015.7,286047001.7,N
1625701035.5,286047001.4,N
1625701055.4,286047001.8,N
1625701075.2,286047002.2,N
1625701095.1,286047002.3,N
1625701096.0,286047002.3,N
1625701115.8,286047002.5,N
1625701135.6,286047000.1,N
1625701155.5,286046999.9,N
1625701175.3,286047000.7,N
1625701195.1,286047002.7,N
1625701215.9,286047001.7,N
1625701235.7,286047002.1,N
1625701255.6,286047011.9,Y
1625701275.4,286047000.1,P
1625701295.2,286047000.1,N
1625701315.1,286047000.8,N
1625701316.0,286047000.8,N
1625701335.8,286046998.3,Y
1625701355.7,286046998.7,P
1625701375.5,286047000.3,N
1625701395.3,286047000.9,N
1625701415.2,286047001.2,N
1625701435.0,286047000.7,N
1625701435.9,286047000.7,N
1625701455.7,286047001.0,N
1625701475.6,286046998.2,N
1625701495.4,286046999.7,N
1625701515.3,286047002.4,N
1625701535.1,286046999.8,N
1625701536.0,286046999.8,N
1625701555.8,286046998.5,N
1625701575.7,286047001.0,N
1625701595.5,286047000.4,N
1625701615.3,286047000.5,N
1625701635.2,286046998.4,N
1625701655.0,286046999.4,N
1625701655.9,286046999.4,N
1625701675.8,286046999.6,N
1625701695.6,286046999.0,N
1625701715.4,286046998.9,N
1625701735.3,286046999.0,N
1625701755.1,286046996.8,Y
1625701775.8,286046997.1,P
1625701795.7,286046996.5,N
1625701815.5,286046996.9,N
1625701835.4,286046997.4,N
1625701855.2,286046998.9,N
1625701875.0,286046998.1,N
1625701875.9,286046998.1,N
1625701895.8,286047001.2,N
1625701915.6,286047001.0,N
1625701935.4,286046998.5,N
1625701955.3,286047000.4,N
1625701975.1,286047000.6,N
1625701995.9,286046999.4,N
1625702015.7,286047001.2,N
1625702035.5,286047000.4,N
1625702055.4,286046998.4,N
1625702075.2,286047000.6,N
1625702095.0,286047001.2,N
1625702095.9,286047001.2,N
1625702115.8,286047000.7,N
1625702135.6,286046999.8,N
1625702155.5,286047000.5,N
1625702175.3,286046999.9,N
1625702195.1,286047000.3,N
1625702215.9,286047001.1,N
1625702235.7,286046996.9,N
1625702255.5,286047001.0,N
1625702275.4,286047001.2,N
1625702295.2,286046998.8,N
1625702315.0,286047001.1,N
1625702315.9,286047001.1,N
1625702335.8,286046998.2,N
1625702355.6,286046998.3,N
1625702375.5,286046997.0,N
1625702395.3,286046994.9,Y
